Pardubice, Czech Republic

6:23 AM CET on February 20, 2017 (GMT +0100)
Pardubice

Weather History for LKPD - September, 2013

Change the Weather History Date:

Sunday, September 1, 2013

  Actual Average Record
Temperature  
Mean Temperature 58 °F -  
Max Temperature 64 °F - - ()
Min Temperature 51 °F - - ()
Degree Days  
Heating Degree Days 6    
Growing Degree Days 8 (Base 50)    
Moisture  
Dew Point 49 °F    
Average Humidity 74    
Maximum Humidity 94    
Minimum Humidity 42    
Precipitation  
Precipitation 0.00 in - - ()
Sea Level Pressure  
Sea Level Pressure 30.15 in    
Wind  
Wind Speed 7 mph ()    
Max Wind Speed 14 mph    
Max Gust Speed -    
Visibility 4.5 miles    
Events Rain    
T = Trace of Precipitation, MM = Missing Value Source: Averaged Metar Reports

Daily Weather History Graph

Daily Weather History Graph

Search for Another Location

Airport or City:

Trip Planner

Search our weather history database for the weather conditions in past years. The results will help you decide how hot, cold, wet, or windy it might be!

Date:

Astronomy

Sep. 01, 2013 Rise Set
Actual Time 6:12 AM CEST 7:41 PM CEST
Civil Twilight 5:38 AM CEST 8:14 PM CEST
Nautical Twilight 4:57 AM CEST 8:55 PM CEST
Astronomical Twilight 4:12 AM CEST 9:40 PM CEST
Moon 2:02 AM CEST (9/1) 5:20 PM CEST (9/1)
Length of Visible Light 14h 36m
Length of Day
13h 28m
Waning Crescent, 15% of the Moon is Illuminated
Sep 1
Waning Crescent
Sep 5
New
Sep 12
First Quarter
Sep 19
Full
Sep 27
Last Quarter

Hourly Weather History & Observations

Time (CEST) Temp. Dew Point Humidity Pressure Visibility Wind Dir Wind Speed Gust Speed Precip Events Conditions
12:00 AM 64.4 °F 55.4 °F 73% 30.06 in - WNW 4.6 mph - N/A   Clear
1:00 AM 60.8 °F 57.2 °F 88% 30.09 in 6.2 mi West 6.9 mph - N/A Rain Light Rain
2:00 AM 60.8 °F 57.2 °F 88% 30.09 in 6.2 mi West 5.8 mph - N/A Rain Light Rain
2:47 AM 60.8 °F 57.2 °F 88% 30.09 in 1.9 mi West 8.1 mph - N/A Rain Rain
3:00 AM 59.0 °F 57.2 °F 94% 30.09 in 3.1 mi West 9.2 mph - N/A Rain Light Rain
4:00 AM 59.0 °F 57.2 °F 94% 30.09 in 3.1 mi West 5.8 mph - N/A Rain Light Rain
4:44 AM 59.0 °F 57.2 °F 94% 30.09 in 2.5 mi West 5.8 mph - N/A Rain Light Rain
5:00 AM 59.0 °F 57.2 °F 94% 30.09 in 2.5 mi West 5.8 mph - N/A Rain Light Rain
5:14 AM 59.0 °F 57.2 °F 94% 30.09 in 2.5 mi West 5.8 mph - N/A Rain Light Rain
6:00 AM 59.0 °F 57.2 °F 94% 30.12 in 2.5 mi WNW 10.4 mph - N/A Rain Light Rain
6:32 AM 57.2 °F 55.4 °F 94% 30.12 in 3.7 mi WNW 5.8 mph - N/A Rain Light Rain
7:00 AM 57.2 °F 55.4 °F 94% 30.12 in 5.0 mi West 6.9 mph - N/A   Overcast
8:00 AM 57.2 °F 51.8 °F 82% 30.15 in - WNW 11.5 mph - N/A   Clear
9:00 AM 55.4 °F 48.2 °F 77% 30.18 in - WNW 12.7 mph - N/A   Clear
10:00 AM 57.2 °F 48.2 °F 72% 30.21 in 6.2 mi WNW 12.7 mph - N/A   Mostly Cloudy
11:00 AM 57.2 °F 46.4 °F 67% 30.21 in 6.2 mi WNW 10.4 mph - N/A   Mostly Cloudy
12:00 PM 59.0 °F 44.6 °F 59% 30.21 in 6.2 mi NW 13.8 mph - N/A   Mostly Cloudy
1:00 PM 59.0 °F 42.8 °F 55% 30.21 in 6.2 mi WNW 11.5 mph - N/A   Mostly Cloudy
2:00 PM 60.8 °F 41.0 °F 48% 30.21 in 6.2 mi WNW 10.4 mph - N/A   Mostly Cloudy
3:00 PM 60.8 °F 41.0 °F 48% 30.21 in 6.2 mi West 13.8 mph - N/A   Mostly Cloudy
4:00 PM 60.8 °F 41.0 °F 48% 30.21 in - WNW 10.4 mph - N/A   Clear
5:00 PM 62.6 °F 39.2 °F 42% 30.18 in - West 12.7 mph - N/A   Clear
6:00 PM 60.8 °F 39.2 °F 45% 30.18 in - WNW 9.2 mph - N/A   Clear
7:00 PM 60.8 °F 41.0 °F 48% 30.18 in - West 8.1 mph - N/A   Clear
8:00 PM 57.2 °F 42.8 °F 59% 30.18 in - West 4.6 mph - N/A   Clear
9:00 PM 53.6 °F 44.6 °F 72% 30.21 in - West 3.5 mph - N/A   Clear
10:00 PM 53.6 °F 44.6 °F 72% 30.21 in - WSW 4.6 mph - N/A   Clear
11:00 PM 51.8 °F 44.6 °F 76% 30.21 in - Variable 1.2 mph - N/A   Clear